Weather History for KSKA - December, 2013

Change the Weather History Date:

Thursday, December 19, 2013

  Actual Average Record
Temperature  
Mean Temperature 23 °F -  
Max Temperature 29 °F 30 °F 41 °F (2014)
Min Temperature 17 °F 21 °F 2 °F (2008)
Degree Days  
Heating Degree Days 42    
Moisture  
Dew Point 13 °F    
Average Humidity 64    
Maximum Humidity 77    
Minimum Humidity 53    
Precipitation  
Precipitation 0.00 in - - ()
Sea Level Pressure  
Sea Level Pressure 30.13 in    
Wind  
Wind Speed 7 mph (West)    
Max Wind Speed 12 mph    
Max Gust Speed -    
Visibility 10 miles    
Events Snow    
Averages and records for this station are not official NWS values.
T = Trace of Precipitation, MM = Missing Value Source: NWS Daily Summary

Daily Weather History Graph

Daily Weather History Graph

Search for Another Location

Airport or City:

Trip Planner

Search our weather history database for the weather conditions in past years. The results will help you decide how hot, cold, wet, or windy it might be!

Date:

Astronomy

Dec. 19, 2013 Rise Set
Actual Time 7:35 AM PST 4:00 PM PST
Civil Twilight 6:59 AM PST 4:36 PM PST
Nautical Twilight 6:19 AM PST 5:16 PM PST
Astronomical Twilight 5:42 AM PST 5:53 PM PST
Moon 6:40 PM PST (12/19) 8:48 AM PST (12/19)
Length of Visible Light 9h 37m
Length of Day
8h 25m
Waning Gibbous, 95% of the Moon is Illuminated
Dec 19
Waning Gibbous
Dec 25
Last Quarter
Jan 1
New
Jan 7
First Quarter
Jan 15
Full

Hourly Weather History & Observations

Time (PST) Temp. Windchill Dew Point Humidity Pressure Visibility Wind Dir Wind Speed Gust Speed Precip Events Conditions
12:34 AM 26.6 °F 17.5 °F 12.2 °F 55% 29.92 in 10.0 mi WNW 9.2 mph - N/A   Scattered Clouds
12:58 AM 25.0 °F 14.2 °F 12.2 °F 58% 29.92 in 10.0 mi WNW 11.5 mph - 0.00 in   Partly Cloudy
1:58 AM 23.2 °F 12.0 °F 11.5 °F 61% 29.94 in 10.0 mi NW 11.5 mph - N/A   Clear
2:58 AM 22.5 °F 14.1 °F 10.8 °F 61% 29.97 in 10.0 mi WNW 6.9 mph - N/A   Clear
3:58 AM 21.9 °F 13.4 °F 10.4 °F 61% 30.09 in 10.0 mi NW 6.9 mph - N/A   Clear
4:49 AM 19.4 °F 11.5 °F 10.4 °F 68% 30.00 in 10.0 mi WNW 5.8 mph - N/A Snow Light Snow
4:58 AM 18.5 °F 9.3 °F 9.9 °F 69% 30.10 in 10.0 mi WNW 6.9 mph - 0.00 in Snow Light Snow
4:59 AM 17.6 °F 8.2 °F 10.4 °F 73% 30.00 in 10.0 mi WNW 6.9 mph - N/A   Mostly Cloudy
5:58 AM 19.4 °F 11.5 °F 9.9 °F 66% 30.15 in 10.0 mi WNW 5.8 mph - 0.00 in   Clear
6:31 AM 17.6 °F 8.2 °F 10.4 °F 73% 30.06 in 10.0 mi NW 6.9 mph - N/A Snow Light Snow
6:52 AM 21.2 °F 16.4 °F 12.2 °F 68% 30.06 in 10.0 mi NNW 3.5 mph - N/A   Overcast
6:58 AM 20.7 °F - 11.3 °F 67% 30.17 in 10.0 mi North 2.3 mph - 0.00 in   Overcast
7:30 AM 21.2 °F 14.9 °F 12.2 °F 68% 30.09 in 10.0 mi WNW 4.6 mph - N/A Snow Light Snow
7:50 AM 21.2 °F 11.7 °F 12.2 °F 68% 30.10 in 10.0 mi NW 8.1 mph - N/A   Mostly Cloudy
7:58 AM 21.0 °F 12.4 °F 11.7 °F 67% 30.20 in 10.0 mi NW 6.9 mph - 0.00 in   Scattered Clouds
8:47 AM 23.0 °F 17.0 °F 12.2 °F 63% 30.11 in 10.0 mi NW 4.6 mph - N/A   Clear
8:58 AM 23.7 °F 17.8 °F 12.2 °F 61% 30.21 in 10.0 mi NW 4.6 mph - 0.00 in   Clear
9:06 AM 24.8 °F 20.5 °F 12.2 °F 59% 30.11 in 10.0 mi WNW 3.5 mph - N/A   Clear
9:45 AM 24.8 °F 17.9 °F 12.2 °F 59% 30.13 in 10.0 mi NNW 5.8 mph - N/A   Clear
9:58 AM 25.9 °F 20.3 °F 13.3 °F 59% 30.24 in 10.0 mi WNW 4.6 mph - 0.00 in   Clear
10:25 AM 26.6 °F 20.0 °F 12.2 °F 55% 30.14 in 10.0 mi WNW 5.8 mph - N/A   Clear
10:42 AM 28.4 °F 23.3 °F 14.0 °F 55% 30.13 in 10.0 mi West 4.6 mph - N/A   Partly Cloudy
10:53 AM 28.4 °F 21.2 °F 14.0 °F 55% 30.12 in 10.0 mi West 6.9 mph - N/A   Mostly Cloudy
10:58 AM 28.4 °F 22.2 °F 14.0 °F 55% 30.21 in 10.0 mi WNW 5.8 mph - 0.00 in   Mostly Cloudy
11:38 AM 28.4 °F 23.3 °F 14.0 °F 55% 30.14 in 10.0 mi West 4.6 mph - N/A   Mostly Cloudy
11:47 AM 28.4 °F 22.2 °F 14.0 °F 55% 30.14 in 10.0 mi West 5.8 mph - N/A   Mostly Cloudy
11:58 AM 29.1 °F 24.1 °F 14.0 °F 53% 30.23 in 10.0 mi NW 4.6 mph - 0.00 in   Mostly Cloudy
12:06 PM 28.4 °F 24.6 °F 14.0 °F 55% 30.14 in 10.0 mi WNW 3.5 mph - N/A   Scattered Clouds
12:38 PM 28.4 °F - 14.0 °F 55% 30.12 in 10.0 mi NNW 1.2 mph - N/A   Clear
12:58 PM 28.8 °F 25.0 °F 14.0 °F 54% 30.19 in 10.0 mi West 3.5 mph - 0.00 in   Clear
1:58 PM 29.3 °F 25.6 °F 14.7 °F 55% 30.21 in 10.0 mi SW 3.5 mph - N/A   Clear
2:34 PM 28.4 °F 24.6 °F 15.8 °F 59% 30.12 in 10.0 mi SSW 3.5 mph - N/A   Mostly Cloudy
2:58 PM 28.6 °F 22.4 °F 15.8 °F 59% 30.23 in 10.0 mi South 5.8 mph - 0.00 in   Scattered Clouds
3:16 PM 28.4 °F 22.2 °F 15.8 °F 59% 30.14 in 10.0 mi South 5.8 mph - N/A   Mostly Cloudy
3:58 PM 25.7 °F 18.0 °F 16.5 °F 68% 30.24 in 10.0 mi South 6.9 mph - 0.00 in   Partly Cloudy
4:06 PM 24.8 °F 16.1 °F 17.6 °F 74% 30.12 in 10.0 mi SSE 8.1 mph - N/A   Clear
4:27 PM 24.8 °F 15.3 °F 17.6 °F 74% 30.11 in 10.0 mi SSE 9.2 mph - N/A   Clear
4:58 PM 24.1 °F 16.0 °F 17.1 °F 75% 30.23 in 10.0 mi SSE 6.9 mph - 0.00 in   Clear
5:35 PM 24.8 °F 16.1 °F 15.8 °F 69% 30.12 in 10.0 mi SSE 8.1 mph - N/A   Clear
5:44 PM 24.8 °F 16.1 °F 15.8 °F 69% 30.12 in 10.0 mi SSE 8.1 mph - N/A   Clear
5:58 PM 23.9 °F 14.2 °F 16.0 °F 72% 30.22 in 10.0 mi SSE 9.2 mph - 0.00 in   Clear
6:19 PM 23.0 °F 13.1 °F 15.8 °F 74% 30.10 in 10.0 mi SSE 9.2 mph - N/A   Clear
6:53 PM 23.0 °F 13.9 °F 14.0 °F 68% 30.09 in 10.0 mi SE 8.1 mph - N/A   Clear
6:58 PM 23.0 °F 15.8 °F 14.0 °F 68% 30.20 in 10.0 mi SE 5.8 mph - 0.00 in   Clear
7:58 PM 21.0 °F 12.4 °F 12.6 °F 70% 30.20 in 10.0 mi SSE 6.9 mph - N/A   Mostly Cloudy
8:58 PM 20.7 °F 11.9 °F 11.7 °F 68% 30.20 in 10.0 mi SE 6.9 mph - N/A   Overcast
9:58 PM 19.6 °F 11.7 °F 12.0 °F 72% 30.18 in 10.0 mi SE 5.8 mph - N/A   Overcast
10:58 PM 19.0 °F 11.1 °F 12.4 °F 75% 30.15 in 10.0 mi ESE 5.8 mph - N/A   Mostly Cloudy
11:58 PM 18.5 °F 10.4 °F 12.4 °F 77% 30.15 in 10.0 mi ESE 5.8 mph - N/A   Clear